BREEZE-KM R/B, 44518

Orbit data source: Space-Track

BREEZE-KM R/B, 44518 is space debris in SSO originally from a launch on Fri, 30 Aug 2019 UTC launched from the Plesetsk Missile And Space Complex (PKMTR). Debris objects in space refer to the collection of defunct objects orbiting the Earth. Examples of debris include non-operational satellites, rocket bodies, and fragments generated from explosions, collisions, or faulty payload assembly.

Loading next visibility...
Identifier
44518, 2019-057B
Orbit
SSO
Country
Flag of CISCIS
Related business
Manufacturer
Khrunichev
Mission
Spacecraft
Bus & Motor
BRIZ, S5.92
Mass
2,370 kg wet, 2,370 kg dry
Launch date (UTC)
2019-08-30 (6 years ago)
Launch vehicle
Unknown
Launch site
Plesetsk Missile And Space Complex (PKMTR)
Object type
Payload
Rocket body
Debris
Shape & HBR
Hex Cyl + 1 Rod, 2.0 m
Radar Cross Section
10.190 m², Large (>1 m²)

Expand to show TLE details & history
Last TLE update: 1 day ago

TLE from 1 day ago
0 BREEZE-KM R/B
1 44518U 19057B   25347.36195980  .00000322  00000-0  12808-3 0  9995
2 44518  99.1373 119.6659 0199658 147.2056 214.1700 14.25466898327073
Epoch: 2025-12-13T08:41Z
TLE epoch observation values (Epoch: 2025-12-13T08:41:13.326Z)
Latitude
-0.00003°
Longitude
-92.92994°
Altitude
929.431 km
Speed
7.325 km/s
True Right ascension
07h 58m 39s
True Declination
0° 00' 00"
Sunlit
Object was in full shadow at epoch
Visualization orbit readout
Latitude
Unknown
Longitude
Unknown
Altitude
Unknown
Speed
Unknown
Apparent Right ascension
Unknown
Apparent Declination
Unknown
Sunlit
N/A
Visualization observer readout
Local Sidereal Time
08:16:06
Azimuth
Unknown
Elevation
Unknown
Doppler factor
Unknown
Orbital elements
Apogee altitude
947.493 km
Perigee altitude
660.695 km
Semi-major axis
7,182.231 km
Eccentricity
0.01997
Inclination
99.1373°
RAAN
119.6659°
Arg. of periapsis
147.2056°
True anomaly
212.91111°
Mean anomaly
214.17°
Eccentric anomaly
213.53798°
Mean motion
3.56578 °/min
Orbital period
100.96 mins
BSTAR
0.00012808
Loading maneuver chart data...
Computing Atmospheric mass density...
Loading historical data...
Loading historical data...
Loading historical data...
Loading historical data...
Loading historical data...
Loading historical data...
Loading historical data...
Other satellites on launch #57 in the year 2019 (2019-08-30 UTC)

Documentation

Showing up to 5 results
|